TimeCDT,TemperatureF,Dew PointF,Humidity,Sea Level PressureIn,VisibilityMPH,Wind Direction,Wind SpeedMPH,Gust SpeedMPH,PrecipitationIn,Events,Conditions,WindDirDegrees,DateUTC
12:56 AM,34.9,28.0,76,30.19,10.0,SSE,5.8,-,N/A,,Clear,160,2014-04-06 05:56:00
1:56 AM,34.9,27.1,73,30.17,10.0,SSE,4.6,-,N/A,,Clear,150,2014-04-06 06:56:00
2:56 AM,32.9,27.1,79,30.17,10.0,SSE,4.6,-,N/A,,Clear,150,2014-04-06 07:56:00
3:56 AM,32.0,26.1,79,30.17,10.0,ESE,5.8,-,N/A,,Clear,120,2014-04-06 08:56:00
4:56 AM,34.0,27.1,76,30.16,10.0,SE,5.8,-,N/A,,Clear,140,2014-04-06 09:56:00
5:56 AM,31.1,25.2,79,30.18,10.0,SE,5.8,-,N/A,,Clear,140,2014-04-06 10:56:00
6:56 AM,32.0,25.2,76,30.19,10.0,SSE,6.9,-,N/A,,Clear,150,2014-04-06 11:56:00
7:56 AM,34.9,29.1,79,30.18,10.0,SSE,9.2,-,N/A,,Clear,150,2014-04-06 12:56:00
8:56 AM,39.9,32.0,73,30.17,10.0,SSE,10.4,-,N/A,,Clear,150,2014-04-06 13:56:00
9:56 AM,43.9,32.0,63,30.16,10.0,South,11.5,-,N/A,,Clear,170,2014-04-06 14:56:00
10:56 AM,45.0,32.0,60,30.15,10.0,SSE,12.7,-,N/A,,Clear,160,2014-04-06 15:56:00
11:56 AM,48.9,32.9,54,30.13,10.0,SSE,9.2,-,N/A,,Clear,150,2014-04-06 16:56:00
12:56 PM,52.9,32.9,47,30.09,10.0,East,9.2,-,N/A,,Clear,90,2014-04-06 17:56:00
1:56 PM,52.0,32.0,47,30.06,10.0,SE,9.2,-,N/A,,Clear,140,2014-04-06 18:56:00
2:56 PM,54.0,30.0,40,30.03,10.0,ESE,9.2,-,N/A,,Partly Cloudy,120,2014-04-06 19:56:00
3:56 PM,55.9,31.1,39,30.01,10.0,SE,6.9,-,N/A,,Clear,130,2014-04-06 20:56:00
4:56 PM,54.9,30.0,39,30.01,10.0,SE,8.1,-,N/A,,Clear,140,2014-04-06 21:56:00
5:56 PM,54.9,30.0,39,29.99,10.0,East,5.8,-,N/A,,Clear,100,2014-04-06 22:56:00
6:56 PM,50.9,32.9,50,29.98,10.0,East,5.8,-,N/A,,Clear,90,2014-04-06 23:56:00
7:56 PM,46.9,32.9,58,29.99,10.0,SE,6.9,-,N/A,,Clear,130,2014-04-07 00:56:00
8:56 PM,43.9,34.0,68,30.00,10.0,East,5.8,-,N/A,,Clear,100,2014-04-07 01:56:00
9:56 PM,41.9,32.0,68,29.98,10.0,East,5.8,-,N/A,,Clear,90,2014-04-07 02:56:00
10:56 PM,41.0,32.0,70,29.96,10.0,East,5.8,-,N/A,,Clear,100,2014-04-07 03:56:00